Content
SEND FEEDBACK

Daily
Averages
Monthly
Summary
United States of America

MERIZO, GUAM


Home > North America > United States > Guam
Elevation: 10 feet     Latitude: 13 14N     Longitude: 144 39E

WEATHER
 
SELECT A DAY
Number of Records: 354,566;   Date Range: 1/1/95 - 11/24/14
 
SHARE

PRINT THIS DATA

[ ← Previous Day ]
WEATHER ALMANAC - AUGUST 14, 2013
[ Next Day → ]
[ °C ]   °F
Weather ElementAverageHighLow
Temperature80.3 °F85.5 °F (2:55 pm)76.1 °F (4:55 am)
Dewpoint75.2 °F77 °F (7:57 am)71.6 °F (7:02 am)
Humidity84.8 %96 % (2:55 am)74 % (9:53 am)
Barometer29.83 in29.86 in (8:18 am)29.78 in (2:55 pm)
Wind Speed5.2 mph11.5 mph (3:55 pm)
Weather ElementAverage
Visibility9.1 mi
Wind DirectionESE (105.4 °)

Weather ElementTotal
Precipitation0.12 in
Cooling Degree Days15.8 (Base 65)
Growing Degree Days30.8 (Base 50)
Averaged from 48 records on August 14, 2013
WEATHER CONDITIONS BREAKOUT
WIND DIRECTION BREAKOUT
WEATHER BY HOUR - AUGUST 14, 2013
[ °C ]   °F
Local TimeTemperatureDewpointHumidityBarometerVisibilityWind DirectionWind SpeedGust SpeedPrecipitationEventsConditions
1:55 AM77.5 °F75.4 °F93 %29.81 in10.0 miCalmClear
2:55 AM76.8 °F75.6 °F96 %29.81 in10.0 miCalmOvercast
3:55 AM77.2 °F75.2 °F94 %29.81 in10.0 miCalmOvercast
4:55 AM76.1 °F74.8 °F96 %29.81 in10.0 miCalmPartly Cloudy
5:55 AM77.2 °F75.4 °F94 %29.81 in10.0 miCalmMostly Cloudy
6:36 AM77.0 °F75.2 °F94 %29.82 in10.0 miESE (110°)5.8 mphMostly Cloudy
6:46 AM77.0 °F75.2 °F94 %29.83 in10.0 miEast (100°)8.1 mphMostly Cloudy
6:48 AM77.0 °F75.2 °F94 %29.83 in10.0 miEast (100°)8.1 mphLight Drizzle
6:50 AM77.0 °F75.2 °F94 %29.83 in10.0 miEast (90°)8.1 mphLight Drizzle
6:55 AM76.8 °F73.9 °F91 %29.83 in6.0 miEast (90°)9.2 mph0.02 inRainLight Rain
6:59 AM77.0 °F73.4 °F89 %29.83 in2.5 miNE (50°)8.1 mphRainHeavy Rain
7:02 AM77.0 °F71.6 °F83 %29.83 in2.0 miCalmRainHeavy Rain
7:06 AM77.0 °F73.4 °F89 %29.83 in2.5 miCalmRainLight Rain
7:07 AM77.0 °F73.4 °F89 %29.83 in3.0 miCalmRainLight Rain
7:14 AM77.0 °F73.4 °F89 %29.84 in8.0 miCalmRainLight Rain
7:22 AM78.8 °F73.4 °F83 %29.84 in10.0 miCalmScattered Clouds
7:55 AM79.5 °F76.3 °F90 %29.85 in10.0 miWNW (300°)4.6 mph0.06 inMostly Cloudy
7:57 AM78.8 °F77.0 °F94 %29.85 in10.0 miNW (310°)3.5 mphMostly Cloudy
8:18 AM78.8 °F77.0 °F94 %29.86 in10.0 miNorth (360°)10.4 mphLight Drizzle
8:33 AM77.0 °F75.2 °F94 %29.86 in4.0 miNorth (360°)8.1 mphRainLight Rain
8:37 AM77.0 °F73.4 °F89 %29.86 in9.0 miNorth (360°)6.9 mphRainLight Rain
8:40 AM77.0 °F73.4 °F89 %29.86 in10.0 miNNW (340°)5.8 mphMostly Cloudy
8:55 AM79.3 °F74.1 °F84 %29.86 in10.0 miNW (310°)3.5 mph0.03 inScattered Clouds
9:53 AM84.2 °F75.2 °F74 %29.86 in10.0 miVariable3.5 mphMostly Cloudy
9:55 AM84.0 °F76.1 °F77 %29.86 in10.0 miNNE (20°)5.8 mph0.01 inMostly Cloudy
10:42 AM82.4 °F75.2 °F79 %29.84 in10.0 miNNE (20°)4.6 mphMostly Cloudy
10:43 AM82.4 °F75.2 °F79 %29.84 in10.0 miNNE (30°)5.8 mphMostly Cloudy
10:44 AM82.4 °F75.2 °F79 %29.84 in10.0 miNNE (30°)5.8 mphMostly Cloudy
10:47 AM82.4 °F77.0 °F84 %29.84 in10.0 miNNE (20°)5.8 mphMostly Cloudy
10:55 AM83.1 °F76.3 °F80 %29.84 in10.0 miENE (60°)5.8 mphOvercast
11:08 AM84.2 °F75.2 °F74 %29.84 in10.0 miNE (50°)4.6 mphMostly Cloudy
11:55 AM84.6 °F76.6 °F77 %29.82 in10.0 miEast (90°)8.1 mphMostly Cloudy
12:55 PM84.9 °F76.3 °F75 %29.80 in10.0 miESE (120°)6.9 mphMostly Cloudy
1:55 PM85.1 °F76.6 °F76 %29.79 in10.0 miSE (130°)9.2 mphPartly Cloudy
2:55 PM85.5 °F76.8 °F75 %29.78 in10.0 miEast (90°)10.4 mphPartly Cloudy
3:55 PM84.4 °F76.1 °F76 %29.78 in10.0 miSE (140°)11.5 mphPartly Cloudy
4:55 PM83.7 °F75.9 °F77 %29.79 in10.0 miVariable6.9 mphScattered Clouds
5:06 PM84.2 °F75.2 °F74 %29.80 in10.0 miSE (130°)5.8 mphMostly Cloudy
5:08 PM84.2 °F75.2 °F74 %29.80 in10.0 miSE (130°)6.9 mphScattered Clouds
5:55 PM83.1 °F76.3 °F80 %29.81 in10.0 miSE (130°)5.8 mphClear
6:12 PM82.4 °F77.0 °F84 %29.81 in10.0 miSE (130°)9.2 mphMostly Cloudy
6:15 PM82.4 °F77.0 °F84 %29.81 in10.0 miSSE (150°)8.1 mphScattered Clouds
6:55 PM81.5 °F74.8 °F80 %29.83 in10.0 miSE (140°)6.9 mphClear
7:55 PM81.0 °F75.0 °F82 %29.84 in10.0 miSE (140°)6.9 mphClear
8:55 PM80.2 °F74.8 °F84 %29.85 in10.0 miSSE (150°)4.6 mphClear
9:55 PM80.2 °F74.7 °F83 %29.86 in10.0 miSE (140°)4.6 mphClear
10:55 PM80.1 °F74.3 °F82 %29.86 in10.0 miCalmClear
11:55 PM79.0 °F74.5 °F86 %29.85 in10.0 miSE (140°)3.5 mphClear
Hourly data recorded from PGUA, located miles away from Merizo, Guam







STORIES FROM OUR PARTNERS